Simultaneous Nadir Overpasses (SNOs) Predictions

Prediction of SNOs between AQUA and GOES-15 Satellite Orbit:

Table of predicted SNOs for the next 14.0 days since TLE Epoch: 8/16/2014
Index Date Time (AQUA) AQUA Lat,Lon GOES-15 Lat,Lon Distance(km) Time Diff (sec)
1 08/16/2014 10:44:28 0.11,-137.19 -0.27,-135.45 197.57 80
2 08/18/2014 10:32:17 -0.54,-134.24 -0.27,-135.43 136.29 80
3 08/18/2014 22:53:40 -0.57,-139.43 0.28,-135.44 453.39 80
4 08/20/2014 10:20:04 -1.13,-131.27 -0.28,-135.40 469.69 80
5 08/20/2014 22:41:28 0.09,-136.47 0.28,-135.41 120.10 80
6 08/22/2014 22:29:15 0.69,-133.51 0.29,-135.38 212.97 80
7 08/23/2014 10:50:30 0.41,-138.66 -0.29,-135.36 375.73 80
8 08/25/2014 10:38:17 -0.20,-135.70 -0.29,-135.32 43.07 80
9 08/27/2014 10:26:04 -0.83,-132.73 -0.29,-135.28 289.23 80
10 08/27/2014 22:47:28 -0.26,-137.93 0.30,-135.28 300.86 80
11 08/29/2014 22:35:15 0.38,-134.97 0.30,-135.23 30.84 80




NCC Satellite Simultaneous Nadir Overpasses (SNOs) Prediction Service
